Location: Hermaringen
(48.5952°N, 10.2585°E)
Time: 15:34:39
(UTC+00:00)

Explorer 7 - Pass Details

Date: 20 February 2026
Orbit: 430 x 541 km, 50.2° (Epoch: 8 March)

Event Time Altitude Azimuth Distance (km) Brightness Sun altitude
Rises 17:15:40 0° 283° (WNW) 2,485 11.6 -5.3°
Reaches altitude 10° 17:17:46 10° 285° (WNW) 1,628 10.5 -5.6°
Maximum altitude 17:21:28 81° 14° (NNE) 493 6.6 -6.2°
Drops below altitude 10° 17:25:18 10° 101° (E) 1,695 8.7 -6.8°
Enters shadow 17:25:49 - 102° (ESE) 1,906 9.0 -6.9°
